Tracking 22124 objects as of 23-Jan-2021
HD Live streaming from Space Station
objects crossing your sky now

LEMUR 2 SCHMIDTFALL

Track LEMUR 2 SCHMIDTFALL now!
10-day predictions
LEMUR 2 SCHMIDTFALL is classified as:


NORAD ID: 46315
Int'l Code: 2020-061AV
Perigee: 536.3 km
Apogee: 541.4 km
Inclination: 97.5 °
Period: 95.3 minutes
Semi major axis: 6909 km
RCS: Unknown
Launch date: September 3, 2020
Source: United States (US)
Launch site: FRENCH GUIANA (FRGUI)
aabbcc
Your satellite tracking list
Your tracking list is empty




NASA's NSSDC Master Catalog

Two Line Element Set (TLE):
1 46315U 20061AV  21022.78314944  .00001435  00000-0  88555-4 0  9993
2 46315  97.5059  99.4091 0003660 118.6003 241.5596 15.11470521 21374
Source of the keplerian elements: AFSPC